Date String (YYYY-MM-DD hh:mm:ss) UTC,Instrument flags,Ambient pressure (hPa),Sample flow (lpm),Bypass flow (lpm),Sample temperature (°C),Ambient temperature (°C),ASC tube jacket temperature (°C),LED temperature (°C),Box temperature (°C),Sample RH (%),Span deviation,Mass concentration (μg/m³),Mass concentration (μg/m³),Mass concentration (μg/m³)
DateTimeUTC,F1_M11,P_M11,Q1_M11,Q2_M11,T1_M11,T2_M11,T3_M11,T4_M11,T5_M11,U1_M11,ZSPAN_M11,X0_M11,X2_M11,X1_M11
2022-02-26 06:00:00,,0830.3,5.00,0.00,21.9,22.3,00.0,30.8,23.6,07.3,0000.5,0018.53,0012.11,0011.21
2022-02-26 06:01:00,,0830.3,4.99,0.00,21.8,21.9,00.0,30.8,23.5,07.3,0000.7,0018.22,0012.03,0011.12
2022-02-26 06:02:00,,0830.2,5.00,0.00,21.7,21.6,00.0,30.8,23.4,07.4,0000.8,0017.72,0011.86,0011.04
2022-02-26 06:03:00,,0830.2,5.00,0.00,21.7,21.4,00.0,30.8,23.2,07.4,0000.9,0017.30,0011.81,0010.98
2022-02-26 06:04:00,,0830.2,5.01,0.00,21.6,21.1,00.0,30.7,23.1,07.4,0001.4,0017.32,0011.79,0010.94
2022-02-26 06:05:00,,0830.2,5.01,0.00,21.5,20.9,00.0,30.7,23.0,07.4,0001.7,0017.53,0011.74,0010.89
2022-02-26 06:06:00,,0830.2,5.00,0.00,21.5,20.8,00.0,30.7,22.9,07.4,0001.8,0017.41,0011.71,0010.87
2022-02-26 06:07:00,,0830.2,5.01,0.00,21.5,21.1,00.0,30.7,23.0,07.4,0002.0,0017.35,0011.73,0010.87
2022-02-26 06:08:00,,0830.2,5.01,0.00,21.6,21.9,00.0,30.7,23.3,07.3,0002.2,0017.47,0011.77,0010.89
2022-02-26 06:09:00,,0830.2,4.99,0.00,21.7,22.6,00.0,30.8,23.6,07.3,0002.3,0017.21,0011.81,0010.92
2022-02-26 06:10:00,,0830.2,5.01,0.00,21.9,22.9,00.0,30.8,23.8,07.2,0002.2,0017.12,0011.88,0010.99
2022-02-26 06:11:00,,0830.2,4.98,0.00,21.9,22.5,00.0,30.8,23.7,07.1,0002.3,0017.14,0011.91,0011.07
2022-02-26 06:12:00,,0830.2,5.00,0.00,21.8,22.1,00.0,30.8,23.5,07.1,0002.1,0017.33,0011.97,0011.13
2022-02-26 06:13:00,,0830.2,5.01,0.00,21.8,21.7,00.0,30.8,23.4,07.2,0002.0,0017.50,0012.08,0011.24
2022-02-26 06:14:00,,0830.1,5.00,0.00,21.7,21.4,00.0,30.8,23.3,07.2,0001.9,0017.64,0012.19,0011.33
2022-02-26 06:15:00,,0830.2,5.01,0.00,21.6,21.1,00.0,30.8,23.2,07.2,0001.8,0017.68,0012.25,0011.43
2022-02-26 06:16:00,,0830.2,5.00,0.00,21.6,21.0,00.0,30.7,23.1,07.3,0001.5,0018.38,0012.32,0011.52
2022-02-26 06:17:00,,0830.1,5.00,0.00,21.5,20.8,00.0,30.7,23.0,07.3,0001.4,0018.10,0012.37,0011.59
2022-02-26 06:18:00,,0830.1,5.00,0.00,21.4,20.7,00.0,30.7,22.9,07.3,0001.2,0018.08,0012.45,0011.67
2022-02-26 06:19:00,,0830.2,5.01,0.00,21.5,21.2,00.0,30.7,23.0,07.3,0001.0,0018.21,0012.54,0011.77
2022-02-26 06:20:00,,0830.2,5.00,0.00,21.6,22.1,00.0,30.7,23.4,07.3,0001.1,0019.07,0012.56,0011.79
2022-02-26 06:21:00,,0830.1,4.99,0.00,21.8,22.8,00.0,30.8,23.7,07.2,0001.3,0019.31,0012.58,0011.79
2022-02-26 06:22:00,,0830.1,4.99,0.00,21.9,22.8,00.0,30.8,23.8,07.1,0001.0,0020.05,0012.60,0011.81
2022-02-26 06:23:00,,0830.1,5.00,0.00,21.9,22.4,00.0,30.8,23.7,07.1,0000.9,0020.17,0012.68,0011.87
2022-02-26 06:24:00,,0830.1,4.99,0.00,21.9,22.0,00.0,30.8,23.6,07.1,0000.8,0020.20,0012.73,0011.89
2022-02-26 06:25:00,,0830.1,5.01,0.00,21.8,21.7,00.0,30.8,23.5,07.1,0000.4,0020.13,0012.71,0011.88
2022-02-26 06:26:00,,0830.0,5.00,0.00,21.8,21.5,00.0,30.8,23.4,07.1,0000.7,0020.15,0012.74,0011.89
2022-02-26 06:27:00,,0830.1,5.00,0.00,21.7,21.3,00.0,30.8,23.3,07.2,0000.8,0019.31,0012.73,0011.89
2022-02-26 06:28:00,,0830.1,5.01,0.00,21.6,21.1,00.0,30.8,23.2,07.2,0000.8,0019.42,0012.69,0011.88
2022-02-26 06:29:00,,0830.1,5.00,0.00,21.6,20.9,00.0,30.7,23.1,07.2,0001.1,0019.98,0012.66,0011.84
2022-02-26 06:30:00,,0830.1,5.00,0.00,21.5,20.7,00.0,30.7,22.9,07.2,0001.4,0019.88,0012.58,0011.79
2022-02-26 06:31:00,,0830.1,4.98,0.00,21.5,21.1,00.0,30.7,23.0,07.2,0001.4,0019.16,0012.59,0011.78
2022-02-26 06:32:00,,0830.2,5.00,0.00,21.6,21.9,00.0,30.7,23.3,07.2,0001.1,0018.99,0012.56,0011.77
2022-02-26 06:33:00,,0830.2,5.01,0.00,21.8,22.6,00.0,30.8,23.6,07.1,0001.1,0018.26,0012.56,0011.74
2022-02-26 06:34:00,,0830.1,5.00,0.00,21.9,22.9,00.0,30.8,23.8,07.1,0001.4,0018.02,0012.46,0011.69
2022-02-26 06:35:00,,0830.1,5.00,0.00,21.9,22.5,00.0,30.8,23.7,07.0,0001.6,0017.90,0012.37,0011.64
2022-02-26 06:36:00,,0830.1,4.99,0.00,21.9,22.1,00.0,30.8,23.6,07.1,0002.0,0017.81,0012.32,0011.61
2022-02-26 06:37:00,,0830.0,5.02,0.00,21.8,21.7,00.0,30.8,23.4,07.1,0001.5,0017.68,0012.27,0011.59
2022-02-26 06:38:00,,0830.1,4.99,0.00,21.7,21.4,00.0,30.8,23.3,07.1,0001.1,0017.75,0012.28,0011.60
2022-02-26 06:39:00,,0830.1,5.00,0.00,21.6,21.1,00.0,30.8,23.1,07.1,0000.8,0017.66,0012.33,0011.59
2022-02-26 06:40:00,,0830.0,5.00,0.00,21.6,20.9,00.0,30.8,23.0,07.1,0000.6,0017.14,0012.32,0011.59
2022-02-26 06:41:00,,0830.1,5.00,0.00,21.5,20.7,00.0,30.7,22.9,07.2,0000.4,0016.95,0012.34,0011.60
2022-02-26 06:42:00,,0830.1,5.00,0.00,21.4,20.8,00.0,30.7,22.9,07.2,0000.4,0016.80,0012.33,0011.61
2022-02-26 06:43:00,,0830.0,5.01,0.00,21.6,21.6,00.0,30.7,23.2,07.1,0000.4,0016.68,0012.33,0011.62
2022-02-26 06:44:00,,0830.0,5.01,0.00,21.7,22.4,00.0,30.8,23.5,07.1,0000.1,0016.61,0012.31,0011.62
2022-02-26 06:45:00,,0830.1,4.99,0.00,21.9,22.8,00.0,30.8,23.8,07.0,0000.0,0016.57,0012.31,0011.63
2022-02-26 06:46:00,,0830.1,5.00,0.00,21.9,22.4,00.0,30.8,23.7,07.0,0000.1,0016.66,0012.34,0011.62
2022-02-26 06:47:00,,0830.0,4.99,0.00,21.8,22.1,00.0,30.8,23.5,07.0,0000.1,0016.71,0012.35,0011.61
2022-02-26 06:48:00,,0830.1,5.01,0.00,21.7,21.7,00.0,30.8,23.3,07.1,0000.3,0016.85,0012.34,0011.59
2022-02-26 06:49:00,,0830.0,5.00,0.00,21.6,21.4,00.0,30.8,23.1,07.1,0000.9,0016.80,0012.29,0011.57
2022-02-26 06:50:00,,0830.1,4.98,0.00,21.6,21.1,00.0,30.8,23.0,07.2,0001.2,0016.82,0012.27,0011.57
2022-02-26 06:51:00,,0830.1,5.00,0.00,21.5,20.9,00.0,30.7,22.9,07.2,0001.1,0016.76,0012.25,0011.56
2022-02-26 06:52:00,,0830.1,5.01,0.00,21.4,20.7,00.0,30.7,22.8,07.2,0001.0,0016.73,0012.22,0011.54
2022-02-26 06:53:00,,0830.1,4.99,0.00,21.4,21.1,00.0,30.7,22.9,07.3,0001.1,0016.70,0012.20,0011.51
2022-02-26 06:54:00,,0830.1,5.02,0.00,21.6,21.9,00.0,30.7,23.3,07.2,0001.1,0016.69,0012.19,0011.51
2022-02-26 06:55:00,,0830.1,5.00,0.00,21.7,22.6,00.0,30.7,23.6,07.1,0001.4,0016.74,0012.20,0011.49
2022-02-26 06:56:00,,0830.1,4.99,0.00,21.9,22.7,00.0,30.8,23.7,07.1,0001.5,0016.75,0012.19,0011.46
2022-02-26 06:57:00,,0830.1,5.00,0.00,21.8,22.2,00.0,30.8,23.6,07.1,0001.2,0016.69,0012.15,0011.45
2022-02-26 06:58:00,,0830.0,5.01,0.00,21.8,21.8,00.0,30.8,23.4,07.1,0001.5,0016.63,0012.13,0011.43
2022-02-26 06:59:00,,0830.1,4.99,0.00,21.7,21.5,00.0,30.8,23.3,07.1,0001.6,0016.63,0012.13,0011.40
